Regional Weather Roundup
Issued by NWS

Home | Current Version | Previous Version | Graphics & Text | Print | Product List | Glossary On
Versions: 1 2 3 4 5 6 7 8 9 10 11 12 13 14 15 16 17 18 19 20 21 22 23 24 25 26 27
000
ASUS45 KTFX 060210
RWRMT
MONTANA REGIONAL WEATHER ROUNDUP
NATIONAL WEATHER SERVICE GREAT FALLS MT
800 PM MDT THU MAY 05 2016

NOTE: "FAIR" INDICATES FEW OR NO CLOUDS BELOW 12000 FEET WITH NO
SIGNIFICANT WEATHER AND/OR OBSTRUCTIONS TO VISIBILITY.

MTZ001>007-043-060300-
WEST OF THE DIVIDE

CITY           SKY/WX    TMP DP  RH WIND       PRES   REMARKS
KALISPELL      LGT RAIN  62  48  60 N10G25    29.89R
MISSOULA       CLOUDY    71  45  39 N12G22    29.82R
BUTTE          CLOUDY    69  29  22 E5        29.92R
MULLAN PASS    MOCLDY    54  43  66 N6        29.98S
ANACONDA         N/A     72  28  20 CALM      29.88R
DEER LODGE       N/A     72  36  26 NW7       29.88R
EUREKA           N/A     68  48  49 NW7       29.91R
HAMILTON         N/A     70  48  46 N7        29.81S
LIBBY            N/A     72  46  40 NW5       29.87R
PLAINS           N/A     64  55  72 CALM      29.87R
$$

MTZ008-052>055-060300-
SOUTHWEST MONTANA

CITY           SKY/WX    TMP DP  RH WIND       PRES   REMARKS
BOZEMAN        CLOUDY    74  40  29 E6        29.85S
DILLON         CLOUDY    69  29  22 S9        29.88R
ENNIS          PTCLDY    66  36  32 SE9       29.96R
THREE FORKS      N/A     76 -33   1 CALM      29.86R
TWIN BRIDGES     N/A     70  31  23 E6        29.88S
$$

MTZ009-010-012-014-046-048-049-054-060300-
EAST SLOPES AND CENTRAL MONTANA

CITY           SKY/WX    TMP DP  RH WIND       PRES   REMARKS
CUT BANK       CLOUDY    57  37  47 N28       30.02R
GREAT FALLS    CLOUDY    66  42  41 N17       29.92R
MALMSTROM AFB  PTCLDY    68  43  40 N22G30    29.91R
HELENA         CLOUDY    73  41  31 N18G26    29.84R
CHOTEAU          N/A     63  41  45 N20       29.99R
CONRAD           N/A     64  45  50 NW20      30.00R
$$

MTZ011-013-016-021-045-047-050-051-060300-
NORTH CENTRAL MONTANA

CITY           SKY/WX    TMP DP  RH WIND       PRES   REMARKS
HAVRE          CLOUDY    70  45  40 N13       29.88R
LEWISTOWN      PTCLDY    70  44  39 N6        29.90R
N BAR RANCH      N/A     68  41  37 CALM      29.93S
$$

MTZ017>020-022>027-061-062-060300-
NORTHEAST MONTANA

CITY           SKY/WX    TMP DP  RH WIND       PRES   REMARKS
GLASGOW        CLEAR     77  42  28 N5        29.77R
JORDAN           N/A     70  50  49 N9        29.80R
SIDNEY         PTCLDY    72  46  40 NW10      29.75S
WOLF POINT     MOCLDY    82  47  29 W6        29.75R
POPLAR           N/A     81  45  28 W5        29.76R
SCOBEY           N/A     77  40  26 W3        29.79R
$$

MTZ028>42-056>058-060300-
SOUTHCENTRAL AND SOUTHEAST MONTANA

CITY           SKY/WX    TMP DP  RH WIND       PRES   REMARKS
BAKER          CLEAR     72  46  39 SE5       29.82S
BILLINGS       CLOUDY    77  37  23 E8        29.85R
LIVINGSTON     CLOUDY    70  40  33 SE10      29.87R
MILES CITY     PTCLDY    82  35  18 NW3       29.78S
EKALAKA          N/A     74  38  27 CALM      29.86R
FORSYTH          N/A     81  43  26 CALM      29.79R VSB 1
LAUREL           N/A     73  42  32 CALM      29.85
ROUNDUP          N/A     74  43  32 CALM      29.78S
$$

REGIONAL REPORTS...DAKOTAS

CITY           SKY/WX    TMP DP  RH WIND       PRES   REMARKS
WILLISTON      PTCLDY    72  44  36 W8        29.74R HAZE
MINOT          CLOUDY    82  41  23 SW7       29.72S
DICKINSON      CLOUDY    78  31  17 S3        29.79S
BEACH            N/A     73  39  29 SW6       29.83R
CROSBY           N/A     72  39  30 SW7       29.73S
TIOGA            N/A     75  36  23 SW9       29.80S
WATFORD CITY     N/A     73  45  35 SW3       29.76R HAZE
BISMARCK       CLOUDY    69  49  48 S5        29.77S
GRAND FORKS    PTCLDY    74  36  25 SW7       29.71S
FARGO          CLEAR     77  39  25 SW12      29.75S
BUFFALO SD       N/A     75  49  39 S12       29.78S
RAPID CITY     PTCLDY    67  46  47 E10       29.85S
$$

REGIONAL REPORTS...WYOMING/IDAHO/WASHINGTON

CITY           SKY/WX    TMP DP  RH WIND       PRES   REMARKS
GILLETTE       CLOUDY    56  48  74 SW5       29.90S
SHERIDAN       CLOUDY    68  52  56 SW5       29.88S
BUFFALO WY     CLOUDY    66  45  46 W5        29.96R
CODY           CLOUDY    72  30  21 SE8       29.91S
YELLOWSTONE LA   N/A     49  35  58 CALM      30.12R
IDAHO FALLS    CLOUDY    73  36  25 SW3       29.85S
SALMON         CLOUDY    72  37  28 SW8       29.76S
BOISE          CLOUDY    72  45  37 NW15      29.73R
SPOKANE        PTSUNNY   67  48  50 N14       29.89S
$$

REGIONAL REPORTS...ALBERTA

CITY           SKY/WX    TMP DP  RH WIND       PRES   REMARKS
EDMONTON       PTCLDY    63  23  22 W5        30.00R
CALGARY        MOCLDY    50  41  71 W5        30.10S
LETHBRIDGE     LGT RAIN  54  43  66 NW13G20   30.08R
MEDICINE HAT   CLOUDY    59  41  51 NW22G29   30.00R
WATERTON GATE    N/A     48  41  76 N5          N/A
MILK RIVER       N/A     57  39  51 N22G28      N/A
$$

REGIONAL REPORTS...SASKATCHEWAN

CITY           SKY/WX    TMP DP  RH WIND       PRES   REMARKS
SWIFT CURRENT  PTCLDY    68  41  37 N20G26    29.87R HAZE
REGINA         MOCLDY    75  37  25 W10       29.73R
SASKATOON      PTCLDY    59  41  51 N21G29    29.87R
CYPRESS HILLS    N/A     57  37  47 N12G18      N/A
VAL MARIE        N/A     72  39  30 N16         N/A
ROCKGLEN         N/A     70  39  32 N9          N/A
ASSINIBOIA       N/A     57  37  47 SW13        N/A
$$




USA.gov is the U.S. government's official web portal to all federal, state and local government web resources and services.